Regional Weather Roundup
Issued by NWS Goodland, KS

Home | Current Version | Previous Version | Text Only | Print | Product List | Glossary Off
Versions: 1 2 3 4 5 6 7 8 9 10 11 12 13 14 15 16 17 18 19 20 21 22 23 24 25 26 27 28 29 30 31 32 33 34 35 36 37 38 39 40 41 42 43 44 45 46 47 48 49 50

000
ASUS43 KGLD 261759
RWRGLD

GOODLAND FORECAST AREA HOURLY WEATHER ROUNDUP
NATIONAL WEATHER SERVICE GOODLAND KS
1200 PM MDT MON SEP 26 2016

...OFFICIAL OBSERVATIONS...

CITY           SKY/WX    TMP DP  RH WIND       PRES   REMARKS
GOODLAND KS    SUNNY     73  37  27 W14       30.32F
HILL CITY KS   SUNNY     72  35  25 SW10      30.31F HAZE
IMPERIAL NEB   SUNNY     72  35  25 NW15G21   30.30F
MCCOOK NEB     SUNNY     73  36  25 W13       30.28F
AKRON CO       SUNNY     68  33  27 MISG      30.38F
BURLINGTON CO  SUNNY     72  32  23 W10G17    30.36F
LIMON CO       SUNNY     70  30  22 VRB6      30.41F
$$

...UNOFFICIAL OBSERVATIONS...

CITY           SKY/WX    TMP DP  RH WIND       PRES   REMARKS
COLBY KS       SUNNY     73  37  27 SW12G18   30.32F
LENORA KS        N/A     70  32  24 MISG        N/A
NORTON KS      SUNNY     73  23  15 SW9       30.29F
SHARON SPRINGS   N/A     74  38  26 SW10        N/A
KIT CARSON CO    N/A     69  37  31 MISG        N/A
$$




USA.gov is the U.S. government's official web portal to all federal, state and local government web resources and services.